Frankfort, KY

6:33 AM EDT on March 28, 2017 (GMT -0400)
Capital City

Weather History for KFFT - June, 2013

Change the Weather History Date:

Tuesday, June 4, 2013

  Actual Average Record
Temperature  
Mean Temperature 64 °F 70 °F  
Max Temperature 77 °F 81 °F 97 °F (1895)
Min Temperature 51 °F 58 °F 41 °F (1910)
Degree Days  
Heating Degree Days 1 1  
Month to date heating degree days 2 4  
Since 1 June heating degree days 2 4  
Since 1 July heating degree days 4781 4694  
Cooling Degree Days 0 5  
Month to date cooling degree days 16 20  
Year to date cooling degree days 135 119  
Since 1 June cooling degree days 16 20  
Growing Degree Days 14 (Base 50)    
Moisture  
Dew Point 54 °F    
Average Humidity 73    
Maximum Humidity 100    
Minimum Humidity 46    
Precipitation  
Precipitation 0.00 in 0.16 in 1.80 in (1895)
Month to date precipitation 0.27 0.70  
Year to date precipitation 18.94 20.17  
Sea Level Pressure  
Sea Level Pressure 30.06 in    
Wind  
Wind Speed 5 mph (ENE)    
Max Wind Speed 12 mph    
Max Gust Speed -    
Visibility 10 miles    
Events      
T = Trace of Precipitation, MM = Missing Value Source: NWS Daily Summary

Daily Weather History Graph

Daily Weather History Graph

Search for Another Location

Airport or City:

Trip Planner

Search our weather history database for the weather conditions in past years. The results will help you decide how hot, cold, wet, or windy it might be!

Date:

Astronomy

Jun. 04, 2013 Rise Set
Actual Time 6:17 AM EDT 8:59 PM EDT
Civil Twilight 5:46 AM EDT 9:30 PM EDT
Nautical Twilight 5:07 AM EDT 10:09 PM EDT
Astronomical Twilight 4:23 AM EDT 10:53 PM EDT
Moon 3:43 AM EDT (6/4) 5:30 PM EDT (6/4)
Length of Visible Light 15h 44m
Length of Day
14h 41m
Waning Crescent, 14% of the Moon is Illuminated
Jun 4
Waning Crescent
Jun 8
New
Jun 16
First Quarter
Jun 23
Full
Jun 30
Last Quarter

Hourly Weather History & Observations

Time (EDT) Temp. Dew Point Humidity Pressure Visibility Wind Dir Wind Speed Gust Speed Precip Events Conditions
12:53 AM 57.0 °F 52.0 °F 83% 30.05 in 10.0 mi NNE 3.5 mph - N/A   Clear
1:53 AM 57.9 °F 52.0 °F 81% 30.05 in 10.0 mi NE 3.5 mph - N/A   Clear
2:53 AM 54.0 °F 51.1 °F 90% 30.05 in 10.0 mi Calm Calm - N/A   Clear
3:53 AM 52.0 °F 51.1 °F 97% 30.05 in 10.0 mi Calm Calm - N/A   Clear
4:53 AM 52.0 °F 50.0 °F 93% 30.06 in 10.0 mi Calm Calm - N/A   Clear
5:53 AM 52.0 °F 51.1 °F 97% 30.07 in 10.0 mi Calm Calm - N/A   Clear
6:53 AM 53.1 °F 51.1 °F 93% 30.09 in 9.0 mi Calm Calm - N/A   Clear
7:53 AM 57.9 °F 53.1 °F 84% 30.10 in 10.0 mi Calm Calm - N/A   Clear
8:53 AM 62.1 °F 55.0 °F 78% 30.10 in 10.0 mi ENE 5.8 mph - N/A   Clear
9:53 AM 66.0 °F 55.0 °F 68% 30.10 in 10.0 mi East 6.9 mph - N/A   Clear
10:53 AM 70.0 °F 55.9 °F 61% 30.10 in 10.0 mi NE 5.8 mph - N/A   Clear
11:53 AM 72.0 °F 55.9 °F 57% 30.10 in 10.0 mi NE 9.2 mph - N/A   Partly Cloudy
12:53 PM 72.0 °F 55.0 °F 55% 30.10 in 10.0 mi ENE 5.8 mph - N/A   Mostly Cloudy
1:53 PM 73.0 °F 54.0 °F 51% 30.08 in 10.0 mi NNE 8.1 mph - N/A   Overcast
2:53 PM 73.0 °F 54.0 °F 51% 30.07 in 10.0 mi East 11.5 mph - N/A   Mostly Cloudy
3:53 PM 75.9 °F 55.0 °F 48% 30.06 in 10.0 mi NE 8.1 mph - N/A   Partly Cloudy
4:53 PM 75.9 °F 55.0 °F 48% 30.06 in 10.0 mi SE 10.4 mph - N/A   Clear
5:53 PM 75.9 °F 54.0 °F 46% 30.05 in 10.0 mi East 8.1 mph - N/A   Clear
6:53 PM 75.0 °F 54.0 °F 48% 30.04 in 10.0 mi NNE 3.5 mph - N/A   Clear
7:53 PM 73.0 °F 54.0 °F 51% 30.04 in 10.0 mi NE 4.6 mph - N/A   Clear
8:53 PM 71.1 °F 55.0 °F 57% 30.02 in 10.0 mi NNE 3.5 mph - N/A   Clear
9:53 PM 70.0 °F 54.0 °F 57% 30.03 in 10.0 mi NE 3.5 mph - N/A   Clear
10:53 PM 68.0 °F 54.0 °F 61% 30.04 in 10.0 mi NE 5.8 mph - N/A   Clear
11:53 PM 64.9 °F 53.1 °F 65% 30.04 in 10.0 mi ENE 5.8 mph - N/A   Clear